Flag for Syria Weather past 2 weeks in Damascus, Syria

Now
81 °F

Sunny.


Feels Like: 81 °F
Forecast: 62 / 102 °F
Wind: 7 mph from East

Location: Damascus Int. Airport

Current Time: Jul 31, 2014 at 10:41:13 AM

Latest Report: Jul 31, 2014 at 10:00 AM


Visibility: 10 mi

Pressure: 29.83 "Hg

Humidity: 48%

Dew point: 59 °F

Location of DamascusLocation

Historic Weather in Damascus — Graph

°F

Damascus temperature yesterday

Maximum temperature yesterday: 99 °F (at 2:00 PM)
Minimum temperature yesterday: 70 °F (at 4:00 AM)
Average temperature yesterday: 83 °F

Past Weeks' High & Low Weather Summary

 TemperatureHumidityPressure
High99 °F (Jul 23, 3:00 PM)94% (Jul 17, 6:00 AM)29.95 "Hg (Jul 17, 6:00 AM)
Low64 °F (Jul 17, 6:00 AM)14% (Jul 18, 2:00 PM)29.68 "Hg (Jul 21, 1:00 AM)
Average80 °F50%29.80 "Hg
* Reported Jul 16 11:00 AM — Jul 31 10:00 AM, Damascus, Weather by CustomWeather, © 2014

Note: Actual official high and low records may vary slightly from our data, if they occured in-between our weather recording intervals... More about our weather records

Advertising

Damascus weather history for previous 24 hours

 ConditionsComfort  
Time TempWeatherWind HumidityBarometerVisibility
10:00 AM
Jul 31
81 °FSunny.7 mph48%29.83 "Hg10 mi
9:00 AM75 °FSunny.7 mph69%29.83 "Hg10 mi
8:00 AM72 °FSunny.9 mph73%29.83 "Hg10 mi
7:00 AM68 °FSunny.9 mph83%29.83 "Hg10 mi
6:00 AM66 °FClear.12 mph83%29.80 "Hg10 mi
5:00 AM68 °FClear.12 mph78%29.80 "Hg10 mi
4:00 AM70 °FClear.12 mph83%29.80 "Hg10 mi
3:00 AM70 °FClear.7 mph83%29.80 "Hg10 mi
2:00 AM72 °FClear.9 mph69%29.80 "Hg10 mi
1:00 AM72 °FClear.9 mph69%29.80 "Hg10 mi
12:00 AM75 °FClear.12 mph57%29.80 "Hg10 mi
11:00 PM
Jul 30
77 °FClear.12 mph54%29.80 "Hg10 mi
10:00 PM79 °FClear.14 mph48%29.77 "Hg10 mi
9:00 PM82 °FClear.12 mph45%29.74 "Hg10 mi
8:00 PM88 °FSunny.12 mph31%29.74 "Hg10 mi
7:00 PM93 °FSunny.14 mph24%29.74 "Hg10 mi
6:00 PM97 °FSunny.14 mph20%29.71 "Hg10 mi
5:00 PM99 °FSunny.14 mph21%29.74 "Hg10 mi
4:00 PM99 °FSunny.14 mph24%29.74 "Hg10 mi
3:00 PM99 °FSunny.2 mph21%29.74 "Hg10 mi
2:00 PM99 °FSunny.7 mph17%29.77 "Hg10 mi
1:00 PM97 °FSunny.9 mph19%29.77 "Hg10 mi
12:00 PM95 °FSunny.12 mph30%29.80 "Hg10 mi
11:00 AM90 °FSunny.12 mph38%29.80 "Hg10 mi
10:00 AM84 °FSunny.14 mph48%29.80 "Hg10 mi
Weather by CustomWeather, © 2014

See weather overviewHow to use our weather pages